There are multiple Weather-warnings   Click here for more information


Meteo18 Weather Cam more information Meteo18 Weather Cam


warning for Thunderstorms more information blitzortung!


Rain radar more information rain snow radar


Visit our other weather sites:

Template documentation
and downloads

And another site



Weather Underground History page Text

Daily Summary for August 26, 2016 Units:  Metric    English   Both
« Previous Day
Next Day »
Daily Weekly Monthly Yearly Custom
  High: Low: Average:
Temperature: 36.4 °C 18.2 °C 27.2 °C
Dew Point: 16.3 °C 10.0 °C 13.5 °C
Humidity: 83 % 21 % 48 %
Wind Speed: 16.1 km/h 0.0 km/h 2.5 km/h
Wind Gust: 20.9 km/h - -
Wind:- - SSW
Pressure: 1016.5 hPa 1014.1 hPa -
Precipitation: 0.0 mm    
Historical Graphs
 
 
Tabular Data for August 26, 2016
Time Temperature Dew Point Pressure Wind Wind Speed Wind Gust Humidity Rainfall Rate (Hourly)
00:02 23.1 °C 15.7 °C 1014.1 hPa Calm   1.6 km/h 63 % 0.0 mm
00:12 23.0 °C 15.8 °C 1014.1 hPa Calm   1.6 km/h 64 % 0.0 mm
00:17 23.2 °C 16.0 °C 1014.1 hPa Calm     64 % 0.0 mm
00:22 23.1 °C 15.9 °C 1014.1 hPa Calm     64 % 0.0 mm
00:32 22.7 °C 15.8 °C 1014.1 hPa Calm     65 % 0.0 mm
00:37 22.9 °C 15.7 °C 1014.1 hPa Calm     64 % 0.0 mm
00:42 22.9 °C 15.7 °C 1014.1 hPa Calm     64 % 0.0 mm
00:47 22.8 °C 15.6 °C 1014.1 hPa Calm     64 % 0.0 mm
00:52 22.7 °C 15.5 °C 1014.1 hPa Calm     64 % 0.0 mm
00:57 22.4 °C 15.7 °C 1014.1 hPa Calm     66 % 0.0 mm
01:02 22.4 °C 15.7 °C 1014.1 hPa Calm     66 % 0.0 mm
01:12 22.3 °C 15.6 °C 1014.1 hPa Calm     66 % 0.0 mm
01:17 22.2 °C 16.0 °C 1014.4 hPa Calm     68 % 0.0 mm
01:22 22.1 °C 15.7 °C 1014.1 hPa Calm     67 % 0.0 mm
01:32 21.9 °C 15.7 °C 1014.4 hPa Calm     68 % 0.0 mm
01:37 22.1 °C 15.9 °C 1014.4 hPa Calm     68 % 0.0 mm
01:42 22.1 °C 15.7 °C 1014.4 hPa Calm     67 % 0.0 mm
01:47 21.7 °C 15.5 °C 1014.4 hPa Calm     68 % 0.0 mm
01:52 21.7 °C 15.8 °C 1014.4 hPa Calm     69 % 0.0 mm
01:57 21.8 °C 15.9 °C 1014.4 hPa Calm     69 % 0.0 mm
02:02 21.7 °C 15.8 °C 1014.4 hPa Calm     69 % 0.0 mm
02:12 21.4 °C 15.5 °C 1014.4 hPa Calm     69 % 0.0 mm
02:17 21.3 °C 15.4 °C 1014.4 hPa Calm     69 % 0.0 mm
02:22 21.1 °C 15.6 °C 1014.4 hPa Calm     71 % 0.0 mm
02:27 21.1 °C 15.6 °C 1014.4 hPa Calm     71 % 0.0 mm
02:32 21.2 °C 15.7 °C 1014.4 hPa Calm     71 % 0.0 mm
02:37 21.1 °C 15.6 °C 1014.4 hPa Calm     71 % 0.0 mm
02:42 21.1 °C 15.6 °C 1014.4 hPa Calm     71 % 0.0 mm
02:47 20.9 °C 15.4 °C 1014.4 hPa Calm     71 % 0.0 mm
02:52 20.7 °C 15.3 °C 1014.4 hPa Calm     71 % 0.0 mm
02:57 20.7 °C 15.7 °C 1014.4 hPa Calm     73 % 0.0 mm
03:02 20.6 °C 15.4 °C 1014.4 hPa Calm     72 % 0.0 mm
03:12 20.4 °C 15.6 °C 1014.4 hPa Calm     74 % 0.0 mm
03:17 20.4 °C 15.6 °C 1014.4 hPa Calm     74 % 0.0 mm
03:22 20.4 °C 15.6 °C 1014.4 hPa Calm     74 % 0.0 mm
03:32 20.4 °C 15.4 °C 1014.4 hPa Calm     73 % 0.0 mm
03:37 20.4 °C 15.4 °C 1014.4 hPa Calm     73 % 0.0 mm
03:42 20.4 °C 15.4 °C 1014.4 hPa Calm     73 % 0.0 mm
03:47 20.5 °C 15.5 °C 1014.4 hPa Calm     73 % 0.0 mm
03:52 20.3 °C 15.3 °C 1014.4 hPa Calm     73 % 0.0 mm
03:57 20.2 °C 15.4 °C 1014.4 hPa Calm     74 % 0.0 mm
04:07 19.8 °C 15.2 °C 1014.4 hPa Calm     75 % 0.0 mm
04:12 19.6 °C 15.0 °C 1014.8 hPa Calm     75 % 0.0 mm
04:17 19.6 °C 15.3 °C 1014.4 hPa Calm     76 % 0.0 mm
04:22 19.6 °C 15.0 °C 1014.4 hPa Calm     75 % 0.0 mm
04:32 19.3 °C 15.2 °C 1014.8 hPa Calm     77 % 0.0 mm
04:37 19.6 °C 15.5 °C 1014.8 hPa Calm     77 % 0.0 mm
04:42 19.6 °C 15.0 °C 1014.8 hPa West 1.6 km/h   75 % 0.0 mm
04:47 19.7 °C 15.1 °C 1014.8 hPa Calm   3.2 km/h 75 % 0.0 mm
04:52 20.0 °C 15.4 °C 1014.8 hPa Calm   3.2 km/h 75 % 0.0 mm
05:02 20.1 °C 15.1 °C 1014.8 hPa NNW 1.6 km/h 3.2 km/h 73 % 0.0 mm
05:07 19.9 °C 15.1 °C 1014.8 hPa Calm   1.6 km/h 74 % 0.0 mm
05:17 19.7 °C 15.1 °C 1014.8 hPa Calm   1.6 km/h 75 % 0.0 mm
05:22 19.6 °C 15.3 °C 1014.8 hPa Calm   1.6 km/h 76 % 0.0 mm
05:32 19.4 °C 15.1 °C 1014.8 hPa Calm     76 % 0.0 mm
05:42 19.2 °C 15.1 °C 1014.8 hPa Calm     77 % 0.0 mm
05:52 18.9 °C 15.0 °C 1014.8 hPa Calm     78 % 0.0 mm
06:02 19.1 °C 15.6 °C 1014.8 hPa Calm     80 % 0.0 mm
06:07 19.2 °C 15.5 °C 1014.8 hPa Calm     79 % 0.0 mm
06:12 19.1 °C 15.4 °C 1015.1 hPa Calm     79 % 0.0 mm
06:17 18.9 °C 15.4 °C 1015.1 hPa Calm     80 % 0.0 mm
06:22 18.7 °C 15.2 °C 1015.1 hPa Calm     80 % 0.0 mm
06:32 18.6 °C 15.3 °C 1015.1 hPa Calm     81 % 0.0 mm
06:47 18.2 °C 15.1 °C 1015.1 hPa Calm     82 % 0.0 mm
06:52 18.2 °C 15.1 °C 1015.1 hPa Calm     82 % 0.0 mm
07:02 18.2 °C 15.3 °C 1015.1 hPa Calm     83 % 0.0 mm
07:12 18.2 °C 15.3 °C 1015.5 hPa Calm     83 % 0.0 mm
07:17 18.3 °C 15.2 °C 1015.5 hPa Calm     82 % 0.0 mm
07:22 18.6 °C 15.5 °C 1015.5 hPa Calm     82 % 0.0 mm
07:32 18.9 °C 15.4 °C 1015.5 hPa Calm     80 % 0.0 mm
07:37 19.0 °C 15.3 °C 1015.5 hPa Calm     79 % 0.0 mm
07:42 19.3 °C 15.2 °C 1015.5 hPa Calm     77 % 0.0 mm
07:52 19.8 °C 15.2 °C 1015.5 hPa Calm     75 % 0.0 mm
08:02 20.2 °C 15.2 °C 1015.8 hPa Calm     73 % 0.0 mm
08:07 20.3 °C 15.1 °C 1015.8 hPa Calm     72 % 0.0 mm
08:17 20.5 °C 15.1 °C 1015.8 hPa Calm     71 % 0.0 mm
08:22 20.7 °C 15.3 °C 1016.1 hPa Calm     71 % 0.0 mm
08:32 21.3 °C 15.6 °C 1016.1 hPa Calm     70 % 0.0 mm
08:42 21.9 °C 16.0 °C 1016.1 hPa Calm   3.2 km/h 69 % 0.0 mm
08:52 22.9 °C 16.2 °C 1016.1 hPa Calm   1.6 km/h 66 % 0.0 mm
09:02 23.2 °C 16.3 °C 1016.1 hPa SSE 1.6 km/h 1.6 km/h 65 % 0.0 mm
09:07 23.2 °C 16.3 °C 1016.1 hPa SSE 1.6 km/h 6.4 km/h 65 % 0.0 mm
09:12 23.4 °C 16.0 °C 1016.1 hPa SSE 6.4 km/h 6.4 km/h 63 % 0.0 mm
09:17 23.6 °C 16.1 °C 1016.1 hPa SSW 4.8 km/h 8.0 km/h 63 % 0.0 mm
09:22 23.8 °C 16.1 °C 1016.1 hPa SSW 6.4 km/h 8.0 km/h 62 % 0.0 mm
09:27 24.0 °C 15.8 °C 1016.1 hPa South 3.2 km/h 8.0 km/h 60 % 0.0 mm
09:37 24.5 °C 15.7 °C 1016.1 hPa SW 6.4 km/h 9.7 km/h 58 % 0.0 mm
09:42 24.7 °C 15.6 °C 1016.1 hPa SW 4.8 km/h 9.7 km/h 57 % 0.0 mm
09:52 25.3 °C 15.9 °C 1016.5 hPa South 6.4 km/h 9.7 km/h 56 % 0.0 mm
09:57 25.7 °C 15.7 °C 1016.5 hPa SW 3.2 km/h 9.7 km/h 54 % 0.0 mm
10:02 26.2 °C 15.3 °C 1016.5 hPa South 1.6 km/h 9.7 km/h 51 % 0.0 mm
10:07 26.7 °C 15.1 °C 1016.1 hPa SSW 4.8 km/h 9.7 km/h 49 % 0.0 mm
10:12 27.2 °C 14.9 °C 1016.5 hPa WSW 4.8 km/h 9.7 km/h 47 % 0.0 mm
10:22 28.2 °C 14.4 °C 1016.5 hPa SW 6.4 km/h 8.0 km/h 43 % 0.0 mm
10:27 28.7 °C 13.4 °C 1016.5 hPa WSW 6.4 km/h 8.0 km/h 39 % 0.0 mm
10:32 28.9 °C 13.6 °C 1016.5 hPa West 8.0 km/h 8.0 km/h 39 % 0.0 mm
10:37 29.1 °C 12.9 °C 1016.5 hPa SW 8.0 km/h 14.5 km/h 37 % 0.0 mm
10:42 29.2 °C 13.0 °C 1016.5 hPa SW 14.5 km/h 14.5 km/h 37 % 0.0 mm
10:47 29.3 °C 13.1 °C 1016.5 hPa SW 14.5 km/h 20.9 km/h 37 % 0.0 mm
10:57 29.6 °C 12.5 °C 1016.5 hPa WNW 3.2 km/h 20.9 km/h 35 % 0.0 mm
11:12 30.2 °C 12.6 °C 1016.5 hPa West 4.8 km/h 16.1 km/h 34 % 0.0 mm
11:17 30.4 °C 12.8 °C 1016.5 hPa WSW 3.2 km/h 14.5 km/h 34 % 0.0 mm
11:32 30.6 °C 12.0 °C 1016.5 hPa SW 12.9 km/h 16.1 km/h 32 % 0.0 mm
11:37 30.8 °C 12.7 °C 1016.5 hPa West 9.7 km/h 17.7 km/h 33 % 0.0 mm
11:42 30.8 °C 12.2 °C 1016.5 hPa West 4.8 km/h 17.7 km/h 32 % 0.0 mm
11:52 31.2 °C 11.6 °C 1016.5 hPa West 12.9 km/h 16.1 km/h 30 % 0.0 mm
12:02 31.2 °C 12.1 °C 1016.5 hPa West 6.4 km/h 19.3 km/h 31 % 0.0 mm
12:12 31.5 °C 11.8 °C 1016.5 hPa West 4.8 km/h 19.3 km/h 30 % 0.0 mm
12:17 31.4 °C 11.7 °C 1016.5 hPa WNW 4.8 km/h 16.1 km/h 30 % 0.0 mm
12:22 31.7 °C 12.0 °C 1016.5 hPa West 16.1 km/h 17.7 km/h 30 % 0.0 mm
12:32 32.1 °C 11.8 °C 1016.5 hPa SW 9.7 km/h 16.1 km/h 29 % 0.0 mm
12:37 32.1 °C 12.3 °C 1016.5 hPa WSW 6.4 km/h 16.1 km/h 30 % 0.0 mm
12:42 32.2 °C 11.4 °C 1016.1 hPa SSW 9.7 km/h 17.7 km/h 28 % 0.0 mm
12:52 32.3 °C 11.5 °C 1016.1 hPa SW 3.2 km/h 16.1 km/h 28 % 0.0 mm
12:57 32.7 °C 11.8 °C 1016.1 hPa WNW 3.2 km/h 14.5 km/h 28 % 0.0 mm
13:02 32.9 °C 11.4 °C 1016.1 hPa SW 4.8 km/h 14.5 km/h 27 % 0.0 mm
13:12 32.8 °C 11.9 °C 1016.1 hPa WSW 8.0 km/h 11.3 km/h 28 % 0.0 mm
13:17 32.9 °C 12.0 °C 1016.1 hPa SSE 4.8 km/h 12.9 km/h 28 % 0.0 mm
13:22 33.2 °C 11.7 °C 1016.1 hPa SSW 11.3 km/h 12.9 km/h 27 % 0.0 mm
13:27 33.3 °C 11.2 °C 1016.1 hPa SW 4.8 km/h 14.5 km/h 26 % 0.0 mm
13:32 33.4 °C 10.1 °C 1016.1 hPa SSW 12.9 km/h 14.5 km/h 24 % 0.0 mm
13:42 33.7 °C 10.9 °C 1016.1 hPa South 4.8 km/h 17.7 km/h 25 % 0.0 mm
13:47 33.7 °C 10.3 °C 1016.1 hPa SW 14.5 km/h 17.7 km/h 24 % 0.0 mm
13:52 33.7 °C 10.9 °C 1016.1 hPa SW 3.2 km/h 17.7 km/h 25 % 0.0 mm
14:02 33.8 °C 10.4 °C 1016.1 hPa SW 11.3 km/h 16.1 km/h 24 % 0.0 mm
14:12 34.1 °C 10.0 °C 1016.1 hPa SW 6.4 km/h 16.1 km/h 23 % 0.0 mm
14:17 33.9 °C 11.1 °C 1016.1 hPa SSE 1.6 km/h 17.7 km/h 25 % 0.0 mm
14:22 34.2 °C 10.7 °C 1015.8 hPa ESE 4.8 km/h 17.7 km/h 24 % 0.0 mm
14:27 34.6 °C 10.4 °C 1015.8 hPa SW 11.3 km/h 14.5 km/h 23 % 0.0 mm
14:32 34.4 °C 10.3 °C 1015.8 hPa WSW 1.6 km/h 14.5 km/h 23 % 0.0 mm
14:42 34.8 °C 10.6 °C 1015.8 hPa WSW 6.4 km/h 12.9 km/h 23 % 0.0 mm
14:47 34.4 °C 10.9 °C 1015.8 hPa SSW 6.4 km/h 12.9 km/h 24 % 0.0 mm
14:52 34.6 °C 10.4 °C 1015.8 hPa SSW 4.8 km/h 12.9 km/h 23 % 0.0 mm
14:57 34.6 °C 10.4 °C 1015.8 hPa Calm   11.3 km/h 23 % 0.0 mm
15:02 34.9 °C 10.7 °C 1015.8 hPa SW 4.8 km/h 11.3 km/h 23 % 0.0 mm
15:12 35.1 °C 10.9 °C 1015.5 hPa South 3.2 km/h 6.4 km/h 23 % 0.0 mm
15:22 35.2 °C 10.9 °C 1015.5 hPa West 4.8 km/h 12.9 km/h 23 % 0.0 mm
15:32 34.9 °C 10.7 °C 1015.5 hPa ESE 8.0 km/h 17.7 km/h 23 % 0.0 mm
15:37 35.3 °C 11.0 °C 1015.5 hPa South 6.4 km/h 17.7 km/h 23 % 0.0 mm
15:42 35.6 °C 11.3 °C 1015.5 hPa Calm   17.7 km/h 23 % 0.0 mm
15:52 35.5 °C 11.2 °C 1015.5 hPa West 4.8 km/h 9.7 km/h 23 % 0.0 mm
15:57 35.4 °C 11.1 °C 1015.5 hPa SE 6.4 km/h 8.0 km/h 23 % 0.0 mm
16:07 35.8 °C 11.4 °C 1015.5 hPa South 3.2 km/h 12.9 km/h 23 % 0.0 mm
16:12 35.9 °C 11.5 °C 1015.5 hPa SSW 4.8 km/h 12.9 km/h 23 % 0.0 mm
16:17 35.8 °C 11.4 °C 1015.1 hPa WNW 1.6 km/h 11.3 km/h 23 % 0.0 mm
16:22 36.0 °C 11.6 °C 1015.1 hPa SSW 3.2 km/h 11.3 km/h 23 % 0.0 mm
16:27 36.1 °C 11.7 °C 1015.1 hPa SE 4.8 km/h 12.9 km/h 23 % 0.0 mm
16:32 35.6 °C 10.6 °C 1015.1 hPa Calm   12.9 km/h 22 % 0.0 mm
16:42 36.1 °C 11.7 °C 1015.1 hPa Calm   12.9 km/h 23 % 0.0 mm
16:52 35.6 °C 11.3 °C 1015.1 hPa Calm   9.7 km/h 23 % 0.0 mm
17:02 35.6 °C 10.6 °C 1015.1 hPa SW 8.0 km/h 14.5 km/h 22 % 0.0 mm
17:12 35.4 °C 10.4 °C 1014.8 hPa WSW 9.7 km/h 14.5 km/h 22 % 0.0 mm
17:22 35.8 °C 10.8 °C 1014.8 hPa SW 1.6 km/h 17.7 km/h 22 % 0.0 mm
17:27 36.1 °C 11.0 °C 1014.8 hPa Calm   11.3 km/h 22 % 0.0 mm
17:32 36.4 °C 11.3 °C 1014.8 hPa SW 6.4 km/h 11.3 km/h 22 % 0.0 mm
17:42 36.3 °C 11.2 °C 1014.8 hPa WSW 1.6 km/h 9.7 km/h 22 % 0.0 mm
17:52 35.9 °C 10.9 °C 1014.8 hPa East 4.8 km/h 11.3 km/h 22 % 0.0 mm
17:57 35.8 °C 10.8 °C 1014.8 hPa WSW 6.4 km/h 12.9 km/h 22 % 0.0 mm
18:02 35.6 °C 10.6 °C 1014.8 hPa SW 1.6 km/h 12.9 km/h 22 % 0.0 mm
18:12 36.2 °C 10.4 °C 1014.8 hPa South 1.6 km/h 12.9 km/h 21 % 0.0 mm
18:17 36.1 °C 11.0 °C 1014.8 hPa SW 1.6 km/h 12.9 km/h 22 % 0.0 mm
18:27 35.8 °C 10.8 °C 1014.8 hPa SW 1.6 km/h 8.0 km/h 22 % 0.0 mm
18:32 36.2 °C 11.1 °C 1014.8 hPa Calm   12.9 km/h 22 % 0.0 mm
18:37 36.2 °C 10.4 °C 1014.8 hPa SSE 1.6 km/h 12.9 km/h 21 % 0.0 mm
18:42 36.3 °C 11.2 °C 1014.8 hPa Calm   8.0 km/h 22 % 0.0 mm
18:52 36.2 °C 11.1 °C 1014.8 hPa SE 1.6 km/h 6.4 km/h 22 % 0.0 mm
19:02 35.7 °C 10.7 °C 1014.4 hPa SE 1.6 km/h 6.4 km/h 22 % 0.0 mm
19:12 35.8 °C 10.8 °C 1014.4 hPa Calm   8.0 km/h 22 % 0.0 mm
19:22 35.9 °C 10.9 °C 1014.8 hPa Calm   4.8 km/h 22 % 0.0 mm
19:32 36.0 °C 10.9 °C 1014.8 hPa Calm   3.2 km/h 22 % 0.0 mm
19:37 35.9 °C 11.5 °C 1014.4 hPa Calm   3.2 km/h 23 % 0.0 mm
19:42 36.1 °C 11.7 °C 1014.8 hPa SSE 1.6 km/h 3.2 km/h 23 % 0.0 mm
19:47 35.8 °C 11.4 °C 1014.8 hPa Calm   1.6 km/h 23 % 0.0 mm
19:52 35.4 °C 11.8 °C 1014.8 hPa East 1.6 km/h 1.6 km/h 24 % 0.0 mm
19:57 34.5 °C 11.6 °C 1014.8 hPa East 3.2 km/h 3.2 km/h 25 % 0.0 mm
20:02 33.9 °C 12.3 °C 1014.8 hPa Calm   3.2 km/h 27 % 0.0 mm
20:12 32.9 °C 12.5 °C 1014.8 hPa ENE 3.2 km/h 4.8 km/h 29 % 0.0 mm
20:22 31.8 °C 13.1 °C 1014.8 hPa ENE 1.6 km/h 3.2 km/h 32 % 0.0 mm
20:27 31.4 °C 13.2 °C 1014.8 hPa East 1.6 km/h 4.8 km/h 33 % 0.0 mm
20:32 31.1 °C 12.9 °C 1014.8 hPa East 4.8 km/h 4.8 km/h 33 % 0.0 mm
20:37 30.8 °C 13.1 °C 1014.8 hPa East 4.8 km/h 6.4 km/h 34 % 0.0 mm
20:42 30.8 °C 13.1 °C 1014.8 hPa NE 6.4 km/h 6.4 km/h 34 % 0.0 mm
20:47 30.7 °C 13.0 °C 1014.8 hPa East 1.6 km/h 8.0 km/h 34 % 0.0 mm
20:52 30.6 °C 12.9 °C 1014.8 hPa ENE 3.2 km/h 8.0 km/h 34 % 0.0 mm
21:02 29.8 °C 12.2 °C 1015.1 hPa Calm   6.4 km/h 34 % 0.0 mm
21:12 28.6 °C 12.5 °C 1015.1 hPa Calm   4.8 km/h 37 % 0.0 mm
21:22 28.1 °C 12.8 °C 1015.1 hPa Calm   3.2 km/h 39 % 0.0 mm
21:32 27.6 °C 13.2 °C 1015.1 hPa WNW 1.6 km/h 1.6 km/h 41 % 0.0 mm
21:37 27.0 °C 13.0 °C 1015.1 hPa WNW 3.2 km/h 3.2 km/h 42 % 0.0 mm
21:42 26.4 °C 13.2 °C 1015.5 hPa WNW 1.6 km/h 3.2 km/h 44 % 0.0 mm
21:47 26.2 °C 13.0 °C 1015.5 hPa WNW 3.2 km/h 3.2 km/h 44 % 0.0 mm
21:52 26.1 °C 13.6 °C 1015.5 hPa WNW 1.6 km/h 3.2 km/h 46 % 0.0 mm
21:57 25.9 °C 13.4 °C 1015.5 hPa WNW 1.6 km/h 3.2 km/h 46 % 0.0 mm
22:02 25.7 °C 13.5 °C 1015.5 hPa Calm   3.2 km/h 47 % 0.0 mm
22:12 25.4 °C 13.3 °C 1015.5 hPa WNW 3.2 km/h 3.2 km/h 47 % 0.0 mm
22:22 25.1 °C 13.3 °C 1015.5 hPa Calm   3.2 km/h 48 % 0.0 mm
22:32 25.6 °C 13.1 °C 1015.5 hPa WNW 4.8 km/h 9.7 km/h 46 % 0.0 mm
22:42 25.7 °C 13.5 °C 1015.5 hPa West 1.6 km/h 6.4 km/h 47 % 0.0 mm
22:47 25.6 °C 13.5 °C 1015.5 hPa Calm   4.8 km/h 47 % 0.0 mm
22:52 25.7 °C 13.2 °C 1015.5 hPa North 3.2 km/h 4.8 km/h 46 % 0.0 mm
23:02 25.3 °C 13.5 °C 1015.5 hPa Calm   6.4 km/h 48 % 0.0 mm
23:12 25.0 °C 13.2 °C 1015.5 hPa Calm   6.4 km/h 48 % 0.0 mm
23:17 24.9 °C 13.1 °C 1015.5 hPa NNW 1.6 km/h 4.8 km/h 48 % 0.0 mm
23:22 24.8 °C 13.0 °C 1015.5 hPa North 1.6 km/h 4.8 km/h 48 % 0.0 mm
23:32 24.6 °C 13.2 °C 1015.5 hPa Calm   3.2 km/h 49 % 0.0 mm
23:42 23.9 °C 13.1 °C 1015.5 hPa Calm   3.2 km/h 51 % 0.0 mm
23:47 23.6 °C 13.5 °C 1015.5 hPa Calm     53 % 0.0 mm
23:52 23.4 °C 13.6 °C 1015.5 hPa Calm     54 % 0.0 mm
23:57 23.3 °C 13.5 °C 1015.5 hPa Calm     54 % 0.0 mm
Meteo18
Compliments of Weather Underground - 4 mb

Script developed by  Jim McMurry - jmcmurry@mwt.net Adapted for the template by  Wim van der Kuil - Leuven-Template.eu

You find our weather info also at:

European Weather Network

Weather Underground

Equipment we use:

Weather-station
Davis Vue

Weather-program
Meteohub

Weather-server
Raspberry PI 2 B+

Provider
1 and 1

Davis Vue

Meteohub

Raspberry PI 2 B+

1 and 1